Regional Weather Roundup
Issued by NWS

Home | Current Version | Previous Version | Text Only | Print | Product List | Glossary Off
Versions: 1 2 3 4 5 6 7 8 9 10 11 12 13 14 15 16 17 18 19 20 21 22 23 24 25 26 27 28 29 30 31 32 33 34 35 36 37 38 39 40 41 42 43 44 45 46 47 48 49 50

000
ASUS45 KSLC 021310
RWRUT

UTAH REGIONAL WEATHER ROUNDUP
NATIONAL WEATHER SERVICE SALT LAKE CITY UT
700 AM MDT TUE SEP 02 2014

UTZ001>011-023>025-021400-

NORTHERN UTAH

CITY           SKY/WX    TMP DP  RH WIND       PRES   REMARKS
HILL AFB       CLEAR     53  35  49 E20       30.05S
LOGAN          CLEAR     44  41  89 N3        30.08R
OGDEN          CLEAR     54  35  48 S8        30.03S
PROVO AIRPORT  CLEAR     52  43  71 SE3       30.08R
SALT LAKE CITY CLEAR     58  40  51 CALM      30.02R
VERNAL         CLEAR     52  37  56 W5        30.13R
WENDOVER       PTCLDY    61  37  41 CALM      30.02S
HEBER CITY     CLEAR     37  34  87 SE3       30.15S
WEST JORDAN    CLEAR     61  48  63 CALM      30.05R

$$

UTZ012>022-026-027-021400-

SOUTHERN UTAH

CITY           SKY/WX    TMP DP  RH WIND       PRES   REMARKS
BRYCE CANYON   PTCLDY    44  35  70 W9        30.29R
CEDAR CITY     CLEAR     53  35  50 S6        30.12R
MILFORD        CLEAR     50  38  63 S7        30.07R
MOAB/CYNLANDS  CLEAR     61  34  36 CALM      30.04R
PRICE          CLEAR     54  32  43 NE5       30.14R
ST GEORGE      SUNNY     72  41  33 CALM      29.97R

$$

REGIONAL REPORTS     COLORADO/ARIZONA

CITY           SKY/WX    TMP DP  RH WIND       PRES   REMARKS
CRAIG, CO      CLEAR     37  34  89 CALM      30.21R
GRAND JUNCTION CLEAR     54  40  59 E5        30.10R
RIFLE          CLEAR     46  40  79 SE3       30.18R
MONTROSE       CLEAR     51  40  65 SE9       30.19R
CORTEZ         CLEAR     45  38  76 E3        30.18R
PAGE, AZ       CLEAR     72  38  29 S3        30.04R
GRAND CANYON   CLEAR     46  37  71 NE3       30.25
KINGMAN        CLEAR     69  36  29 SE5       29.98R
FLAGSTAFF      CLEAR     46  39  76 CALM      30.27R

$$

REGIONAL REPORTS    NEVADA/IDAHO/WYOMING

CITY           SKY/WX    TMP DP  RH WIND       PRES   REMARKS
LAS VEGAS, NV  CLEAR     79  37  22 SW6       29.82R
ELY            NOT AVBL
ELKO           PTCLDY    46  32  58 E5        30.08R
POCATELLO, ID  CLEAR     40  38  93 N5        30.05S
BURLEY         CLEAR     46  40  79 S3        30.02S
EVANSTON, WY   PTCLDY    46  25  43 S7        30.20R
ROCK SPRINGS   PTCLDY    46  31  55 E3        30.20R

$$



USA.gov is the U.S. government's official web portal to all federal, state and local government web resources and services.